User: anonymous   Login
Location: Boca do Mato
(22.9085°S, 43.2930°W)
Time: 22:29:49
(UTC+00:00)
Language:

NOSS 3-1 (C) - Orbit

View from above orbital plane
View from above orbital plane
View from above satellite
View from above satellite

Ground track
Ground track

The orbit data is extracted from the following two-line orbital elements,

1 26907U 01040C   20271.82803343 0.00000000  00000-0  00000-0 0    05
2 26907  63.4149 202.0274 0483094   1.4625 358.5374 13.41319613    03
Epoch (UTC): 27 September 2020 19:52:22
Eccentricity: 0.0483094
inclination: 63.4149°
perigee height: 743 km
apogee height: 1466 km
right ascension of ascending node: 202.0274°
argument of perigee: 1.4625°
revolutions per day: 13.41319613
mean anomaly at epoch: 358.5374°
orbit number at epoch: 0

The dashed part of the orbit path shows where the satellite is in the earth's shadow,  

DLR